DO1AA Weather Reports


time (UTC)temp
F
wind
direction
speed
knots
gust
knots
rain 1hr
in
rain 24hr
in
rain mn
in
humidity
%
barometer
mb
20260506134003 59 11 1.7 3.5 0.00 0.76 0.73 85 993.5
20260506133004 59 33 2.6 6.1 0.00 0.76 0.73 87 993.6
20260506132002 58 35 1.7 6.1 0.00 0.76 0.73 89 993.6
20260506131003 58 31 1.7 5.2 0.00 0.76 0.73 92 993.4
20260506130004 57 56 1.7 3.5 0.00 0.76 0.73 92 993.8
20260506125004 58 348 0.9 3.5 0.01 0.76 0.73 91 993.7
20260506123004 57 328 2.6 3.5 0.02 0.76 0.73 93 993.5
20260506122004 58 322 0.9 5.2 0.02 0.76 0.73 97 993.5
20260506121003 57 332 1.7 3.5 0.02 0.76 0.73 97 993.6
20260506120005 57 319 0.9 3.5 0.02 0.76 0.73 97 993.6
20260506115003 56 0 0.0 1.7 0.01 0.74 0.72 96 993.7
20260506114003 57 0 0.0 1.7 0.00 0.73 0.71 95 993.6
20260506113004 56 50 0.9 3.5 0.00 0.73 0.71 95 993.9
20260506112003 57 56 2.6 3.5 0.00 0.73 0.71 93 993.8
20260506111004 58 70 1.7 1.7 0.00 0.73 0.71 89 993.7
20260506110005 58 9 0.9 3.5 0.00 0.73 0.71 88 993.5
20260506105003 59 339 1.7 3.5 0.00 0.73 0.71 86 993.5
20260506104003 60 316 0.9 3.5 0.00 0.73 0.71 85 993.4
20260506103004 60 278 1.7 3.5 0.00 0.73 0.71 84 993.2
20260506102003 60 279 1.7 3.5 0.00 0.73 0.71 83 993.4
20260506101004 60 252 0.9 3.5 0.00 0.73 0.71 87 993.3
20260506100004 60 297 0.9 3.5 0.00 0.73 0.71 86 993.0
20260506095003 59 256 0.9 1.7 0.00 0.73 0.71 88 993.0
20260506094003 59 221 0.9 1.7 0.00 0.73 0.71 89 993.1
20260506093003 59 0 0.0 3.5 0.00 0.73 0.71 90 993.0
20260506091003 56 25 1.7 3.5 0.00 0.73 0.71 96 992.8
20260506090004 56 0 0.0 3.5 0.00 0.73 0.71 99 992.6
20260506085004 55 311 0.9 3.5 0.00 0.73 0.71 99 992.7
20260506084003 55 353 0.9 1.7 0.01 0.73 0.71 99 992.7
20260506082004 54 293 1.7 1.7 0.01 0.73 0.71 99 992.7
20260506073003 54 264 0.9 3.5 0.02 0.72 0.70 99 992.4
20260506072003 53 331 0.9 3.5 0.05 0.72 0.70 99 992.1
20260506062003 53 0 0.0 3.5 0.01 0.70 0.65 99 992.1
20260506051004 53 306 1.7 3.5 0.06 0.69 0.63 99 991.6
20260506045003 53 324 0.9 5.2 0.07 0.69 0.63 99 991.8
20260506044003 53 324 1.7 3.5 0.06 0.67 0.61 99 991.6
20260506043004 53 323 0.9 3.5 0.07 0.65 0.59 99 991.6
20260506042003 53 324 0.9 3.5 0.07 0.64 0.58 99 991.6
20260506041004 53 339 1.7 3.5 0.07 0.63 0.57 99 991.7
20260506040004 53 344 1.7 3.5 0.06 0.61 0.56 99 991.8
20260506035005 53 335 0.9 3.5 0.06 0.61 0.56 99 991.8
20260506034003 53 0 0.0 3.5 0.06 0.61 0.56 99 991.8
20260506033005 53 344 1.7 5.2 0.04 0.58 0.52 99 991.7
20260506032003 53 0 0.0 6.1 0.04 0.57 0.51 99 992.0
20260506031003 53 355 0.9 3.5 0.02 0.56 0.50 99 991.9
20260506030004 53 357 1.7 3.5 0.04 0.56 0.50 99 992.1
20260506024003 53 2 0.9 3.5 0.07 0.56 0.50 99 992.3
20260506023005 53 7 0.9 3.5 0.07 0.54 0.48 99 992.5
20260506022007 53 0 0.0 3.5 0.08 0.53 0.47 99 992.5
20260506021004 54 32 0.9 5.2 0.13 0.53 0.47 99 992.4
20260506020006 54 3 1.7 3.5 0.14 0.52 0.46 99 992.6
20260506015003 54 40 0.9 3.5 0.14 0.50 0.44 99 992.8
20260506013005 54 47 2.6 6.1 0.17 0.47 0.41 99 992.7
20260506012003 54 60 1.7 3.5 0.17 0.45 0.39 99 992.8
20260506011004 54 47 1.7 3.5 0.14 0.40 0.34 99 993.0
20260506010004 54 41 1.7 3.5 0.15 0.38 0.32 99 993.0
20260506005003 54 30 2.6 7.0 0.14 0.35 0.30 99 993.0
20260506004003 55 33 2.6 7.0 0.15 0.33 0.27 99 993.2
20260506003004 55 25 1.7 7.0 0.13 0.30 0.24 99 993.3
20260506002003 55 42 1.7 3.5 0.12 0.28 0.22 99 993.1
20260506001005 55 51 1.7 3.5 0.11 0.25 0.19 99 993.2
20260506000004 56 56 1.7 3.5 0.11 0.22 0.17 99 993.3
20260505235003 56 39 0.9 5.2 0.11 0.21 0.15 99 993.6
20260505234006 56 46 1.7 5.2 0.08 0.18 0.12 99 993.5
20260505232004 56 53 1.7 3.5 0.09 0.17 0.11 99 993.7
20260505231006 56 0 0.0 1.7 0.08 0.14 0.08 99 994.0
20260505225003 56 359 1.7 1.7 0.06 0.11 0.05 99 994.0
20260505224004 56 354 0.9 3.5 0.06 0.09 0.04 99 994.3
20260505223006 56 53 1.7 3.5 0.04 0.07 0.01 99 994.2
20260505222003 56 34 0.9 3.5 0.04 0.07 0.01 99 994.3
20260505221004 56 0 0.0 3.5 0.02 0.06 0.00 99 994.5
20260505220005 56 0 0.0 3.5 0.02 0.06 0.00 98 994.5
20260505215003 56 40 0.9 3.5 0.01 0.05 0.05 98 994.5
20260505214003 56 354 1.7 5.2 0.00 0.04 0.04 97 994.4
20260505213004 57 335 3.5 7.0 0.00 0.04 0.04 96 994.1
20260505212004 57 353 3.5 7.0 0.00 0.04 0.04 95 994.2
20260505211004 57 342 1.7 7.0 0.00 0.04 0.04 94 994.2
20260505210004 58 325 1.7 7.8 0.00 0.04 0.04 93 994.1
20260505205003 58 346 1.7 7.0 0.00 0.04 0.04 92 994.1
20260505204003 58 342 1.7 6.1 0.00 0.04 0.04 91 994.3
20260505203004 58 339 2.6 9.6 0.00 0.04 0.04 91 994.0
20260505202003 59 352 2.6 7.8 0.00 0.04 0.04 91 994.2
20260505201004 59 255 1.7 6.1 0.00 0.04 0.04 90 994.2
20260505200004 60 323 0.9 6.1 0.00 0.04 0.04 89 994.0
20260505195003 60 347 1.7 7.0 0.00 0.04 0.04 89 994.2
20260505194004 60 0 0.0 5.2 0.00 0.04 0.04 88 994.2
20260505193004 61 312 0.9 6.1 0.00 0.04 0.04 87 994.2
20260505192004 61 296 0.9 3.5 0.00 0.04 0.04 87 994.3
20260505191003 61 341 1.7 3.5 0.00 0.04 0.04 86 994.3
20260505190004 61 304 0.9 3.5 0.00 0.04 0.04 86 994.3
20260505185003 61 326 1.7 3.5 0.00 0.04 0.04 85 994.4
20260505184006 61 324 1.7 3.5 0.00 0.04 0.04 84 994.4
20260505183004 62 337 1.7 5.2 0.00 0.04 0.04 84 994.6
20260505182003 62 322 1.7 3.5 0.00 0.04 0.04 83 994.4
20260505181003 62 337 0.9 3.5 0.00 0.04 0.04 83 994.4
20260505180004 62 344 0.9 3.5 0.00 0.04 0.04 82 994.5
20260505175004 63 344 0.9 3.5 0.00 0.04 0.04 82 994.4
20260505174003 63 342 1.7 7.0 0.00 0.04 0.04 81 994.7
20260505173004 63 328 0.9 6.1 0.00 0.04 0.04 80 994.3
20260505172004 64 352 0.9 6.1 0.00 0.04 0.04 80 994.3
20260505171003 64 292 1.7 7.0 0.00 0.04 0.04 79 994.5
20260505170004 65 307 2.6 7.8 0.00 0.04 0.04 77 994.7
20260505165003 66 322 0.9 3.5 0.00 0.04 0.04 73 994.6
20260505163004 67 289 1.7 1.7 0.00 0.04 0.04 69 994.5
20260505162003 67 0 0.0 3.5 0.00 0.04 0.04 68 994.6
20260505161003 67 351 0.9 3.5 0.00 0.04 0.04 68 994.7
20260505153004 67 39 1.7 3.5 0.00 0.04 0.04 66 995.2
20260505152004 67 39 0.9 3.5 0.00 0.04 0.04 66 995.2
20260505151003 67 0 0.0 3.5 0.00 0.04 0.04 66 995.1